Current Version              Previous Version:    01  02  03  04  05  06  07  08  09  10  11  12  13  14  15  16  17  18  19  20  21  22  23  24  25  26  27  28  29  30  
   31  32  33  34  35  36  37  38  39  40  41  42  43  44  45  46  47  48  49  50  51  52  53  54  55  56  57  58  59  60  

[Printable]
779
ASUS44 KEWX 280710
RWRTX
SOUTH TEXAS REGIONAL WEATHER ROUNDUP
NATIONAL WEATHER SERVICE AUSTIN/SAN ANTONIO TX
200 AM CDT THU AUG 28 2014

NOTE: "FAIR" INDICATED FEW OR NO CLOUDS BELOW 12,000 FEET WITH NO
SIGNIFICANT WEATHER AND/OR OBSTRUCTIONS TO VISIBILITY.

* - THESE STATIONS ARE NOT NWS OR FAA STATIONS...AND ARE NOT SUBJECT
    TO NWS AND FAA QUALITY CONTROL.

TXZ171-172-183>190-280800-
TEXAS HILL COUNTRY AND EDWARDS PLATEAU

CITY           SKY/WX    TMP DP  RH WIND       PRES   REMARKS
JUNCTION       CLEAR     77  63  61 CALM      30.02S
*LLANO         CLEAR     75  59  57 SE5       30.04R
BURNET         CLEAR     78  64  61 SE3       30.03F
*HORSESHOE BAY CLEAR     77  63  61 S6        30.01R
*KERRVILLE     CLEAR     72  65  81 CALM      30.03S
*FREDERICKSBRG CLEAR     76  63  63 SE3       30.04S
*ROCKSPRINGS   CLEAR     77  63  61 SE10      30.07S
*BOERNE STAGE  CLEAR     72  61  68 CALM      30.03S
*CASTROVILLE   CLEAR     80  65  59 E5        30.00R
HONDO            N/A    N/A N/A N/A MISG      30.00S
*UVALDE        CLEAR     78  64  63 E3        29.98S
DEL RIO        CLEAR     86  63  45 E8        29.94F
LAUGHLIN AFB   CLEAR     83  64  52 SE13      29.96S
CARRIZO SPRGS  CLEAR     82  66  57 SE6       29.94F
$$

TXZ173-191>194-202-209-217>225-228-280800-
CENTRAL AND SOUTH CENTRAL TEXAS

CITY           SKY/WX    TMP DP  RH WIND       PRES   REMARKS
GEORGETOWN     CLEAR     79  66  65 CALM      30.01F
AUSTIN/BERGSTM PTCLDY    74  68  81 CALM      29.98S
AUSTIN/MABRY   CLEAR     80  70  71 S7        29.99F
*AUSTIN/EXEC   CLOUDY    77  70  78 CALM      29.99F
*LAGO VISTA    CLEAR     78  67  69 SE3       30.02S
SAN MARCOS     CLEAR     75  63  64 CALM      30.00S
NEW BRAUNFELS  CLEAR     75  68  78 CALM      29.97S
RANDOLPH AFB   CLEAR     77  68  74 E3        29.99S
PT SAN ANTONIO CLEAR     81  69  66 E6        29.97S
SAN ANTONIO    CLEAR     80  69  69 E7        29.99S
STINSON FIELD  CLEAR     80  69  69 E5        29.96S
*PLEASANTON    CLEAR     78  68  70 E3        29.96F
*LA GRANGE     CLEAR     79  73  82 E3        29.94F
*GIDDINGS      CLEAR     75  69  80 CALM      30.01S
*GONZALES      CLEAR     80  73  78 CALM      29.95F
$$

TXZ163>164-176>182-195>201-210>213-226-227-235-280800-
SOUTHEAST TEXAS

CITY           SKY/WX    TMP DP  RH WIND       PRES   REMARKS
COLLEGE STN    CLEAR     79  71  76 SE5       29.97F
*BRYAN         CLEAR     77  72  83 CALM      29.97S
*CALDWELL      CLEAR     77  72  83 CALM      30.00F
*CROCKETT      CLEAR     79  75  89 SE3       30.01F
*BRENHAM       CLEAR     79  73  81 CALM      29.97F
HUNTSVILLE     CLEAR     76  71  85 CALM      29.98F
CONROE         CLEAR     73  71  93 CALM      29.98F
HOUSTON BUSH   PTCLDY    75  73  94 NW3       29.96S
HOUSTON HOBBY  PTCLDY    80  75  84 NE3       29.94F
*HOUSTON SW AP CLEAR     77  77 100 CALM      29.95F
PEARLAND       PTCLDY    80  75  84 E10       29.96S
HOUSTON HOOKS  CLEAR     75  72  90 CALM      29.97S
ELLINGTON FLD  PTCLDY    79  75  89 CALM      29.96F
SUGAR LAND     CLEAR     79  75  87 NE5       29.95S
*HOUSTON EXEC  NOT AVBL
*CLEVELAND MUN CLEAR     73  73  97 CALM      29.98F FOG
*WHARTON       CLEAR     76  73  91 NE5       29.96S
$$

TXZ214>216-236>238-280800-
THE UPPER TEXAS COAST

CITY           SKY/WX    TMP DP  RH WIND       PRES   REMARKS
*ORANGE        PTCLDY    76  76 100 CALM      29.98S
PORT ARTHUR    PTCLDY    81  75  82 NE8       29.96S
GALVESTON      PTCLDY    85  76  74 E12       29.94F HX  94
ANGLETON       CLEAR     76  74  93 N5        29.93F
*BAY CITY      CLEAR     79  79 100 NE3       29.93F
PALACIOS       CLEAR     78  75  90 MISG      29.92F
$$

TXZ229>234-239>247-280800-
TEXAS COASTAL BEND AND RIO GRANDE PLAINS

CITY           SKY/WX    TMP DP  RH WIND       PRES   REMARKS
VICTORIA       CLEAR     80  76  87 NE7       29.94S
*BEEVILLE      CLEAR     80  74  82 E7        29.92F
ROCKPORT       PTCLDY    83  78  85 NE14      29.90F HX  93
*PORT ARANSAS  PTCLDY    82  77  83 E12       29.90S HX  90
*PORT LAVACA   CLEAR     79  76  91 NE9       29.91F
*INGLESIDE     CLEAR     84  75  74 E9        29.89F HX  92
CORPUS CHRISTI PTCLDY    84  75  74 E15       29.89F HX  92
CORPUS NAS     PTCLDY    83  78  85 E16       29.89F HX  93
*ROBSTOWN      CLEAR     84  76  78 NE12      29.90F HX  92
ALICE          CLEAR     82  74  76 E9        29.90F
KINGSVILLE NAS CLEAR     83  77  82 NE8       29.89F HX  92
COTULLA        CLEAR     82  68  62 SE6       29.95F
*FAITH RANCH   CLEAR     84  66  54 E7        29.96S
LAREDO         CLEAR     83  71  66 E6        29.96F
$$

TXZ248>255-280800-
DEEP SOUTH TEXAS

CITY           SKY/WX    TMP DP  RH WIND       PRES   REMARKS
BROWNSVILLE    MOCLDY    82  78  88 NW8       29.87F HX  91
PORT ISABEL    PTCLDY    83  77  82 N5        29.86F HX  92
*SOUTH PADRE     N/A     81  77  89 CALM      29.86S
HARLINGEN      PTCLDY    80  76  87 NW6       29.87S
*HEBBRONVILLE  CLEAR     79  70  73 E3        29.95S
MCALLEN        CLEAR     82  76  81 N6        29.90F
*WESLACO       CLEAR     80  73  80 CALM      29.88F
FALFURRIAS     CLEAR     78  70  76 CALM      29.90F
EDINBURG       PTCLDY    81  74  79 N3        29.90S
*ZAPATA        CLEAR     82  70  67 E3        29.93S
$$

TXZ213>215-236>238-242>244-246-247-251-254-255-280800-
CMAN STATIONS

STATION/POSITION TIME  TEMP    WIND        PRES    WAVE
                       AIR SEA DIR/SP/G            HT/PER
                 (UTC) (F)     (DEG/KT/KT) (MB)    (FT/S)
SABINE PASS      0700           50/  5/  7 1014.4
SEA RIM ST PARK  0700   80      40/  7/  8 1014.7
NORTH JETTY/GLS  0700   85 84  140/ 14/ 16   N/A
EAGLE POINT      0700   85 86  130/ 12/ 14 1014.0
MORGANS POINT    0700   81      60/  6/  7 1014.1
MISSION/ARANSAS  0600   80      70/ 10     1014.0
PORT O`CONNOR    0700           80/ 13/ 16   N/A
PORT ARANSAS     0700   83 85   50/ 14/ 15 1012.6
MALAQUITE BEACH  0700   83 84   30/ 14/ 17 1011.5
BAFFIN BAY       0700   80 82   60/ 10/ 12 1012.0
PORT ISABEL      0700             CALM     1011.5
$$

GMZ080-GMZ150>470-280800-
OFFSHORE BUOY REPORTS

STATION/POSITION TIME  TEMP    WIND        PRES    WAVE
                       AIR SEA DIR/SP/G            HT/PER
                 (UTC) (F)     (DEG/KT/KT) (MB)    (FT/S)
20 E GALVESTON   0700   85 87  110/ 14/ 17 1013.2    4/ 6
90 E PT ARANSAS  0700   82 86   80/ 17/ 21 1012.3    5/ 5
35 NE PT MANSFLD 0700   81 85   80/ 12/ 14 1010.8    5/ 8
200 E PT ISABEL  0700   86 87  130/ 14/ 17 1011.8    3/ 8
$$